PAS 6

导读 | 星芒AI

PAS 6 是一颗地球静止轨道通信卫星,由欧洲通信卫星组织(Eutelsat)运营,于2002年发射。它位于东经28.5度轨道位置,主要为欧洲、非洲和中东地区提供广播和宽带通信服务。PAS 6 拥有多个转发器,支持电视广播、企业通信和互联网接入等多种应用。该卫星在推动数字电视普及和区域通信发展方面发挥了重要作用,并在2010年代初逐渐被性能更先进的卫星所取代。

基本信息
目录编号:
24891
目录名称:
PAS 6
国际标识:
1997-040A
轨道中心:
EARTH
卫星名称:
PAS 6
卫星全名:
--
卫星状态:
在轨 (已飞行10313 天)
发射日期:
1997-08-08 UTC
国别 :
美国 (US)
星等 :
--
轨道信息
数据来源 国际轨道数据 AOE轨道数据
星历时间 2025-10-31T22:08:55+0800
1天前
查看轨道信息
2025-11-01T16:00:00+0800
1天前
查看轨道信息
半长轴 44114.622km 44114.653km
偏心率 0.0684462 0.0684621
轨道倾角 9.205° 9.204°
近地点辐角 249.446° 249.472°
升交点赤经 328.882° 328.881°
平近点角 289.717° 180.588°
近地点 34717.008km 34716.336km
远地点 40755.966km 40756.7km
周期 1536.857分钟 1536.859分钟
每日圈数 0.936977 0.936976
详细信息
使用方式:
暂无
2D轨道图
3D轨道图
轨道高度分析图
轨道倾角分析图
轨道综合分析图
查看轨道综合分析图